Temperature
18 18 18 18 18 18 18 18 18 18 18 19 19 18 18 18 18 17 17 17 17 17 17 17 17 16 16 16 16 16 16 16 15 15 15 15 15 15
17 17 17 17 18 18 18 18 18 18 18 18 18 18 18 18 18 17 17 17 17 17 17 17 17 17 16 16 16 16 16 16 15 15 15 15 15 15
17 17 17 17 17 17 17 18 18 18 18 18 18 18 18 18 18 17 17 17 17 17 17 17 17 17 17 16 16 16 16 16 15 15 15 15 15 15
17 17 17 17 17 17 17 17 17 18 17 18 18 18 18 18 17 17 17 17 17 17 17 17 17 17 17 16 16 16 16 16 16 15 15 15 15 15
17 17 17 17 17 17 17 17 17 17 17 17 17 17 17 17 17 17 17 17 17 17 17 17 17 17 17 16 16 16 16 16 16 15 15 15 15 15
17 17 17 17 17 17 17 17 17 17 17 17 17 17 17 17 17 17 17 17 16 16 17 17 17 17 16 16 16 16 16 16 15 15 15 15 15 14
17 17 17 17 17 17 16 17 16 16 16 16 16 16 17 17 17 16 16 16 16 16 16 16 16 16 16 16 16 16 16 15 15 15 15 15 14 14
16 16 16 16 17 17 16 16 16 16 16 16 16 16 16 16 16 16 16 16 16 16 16 16 16 16 16 16 16 16 15 15 15 15 14 14 14 14
16 16 16 16 16 16 16 16 16 16 16 16 16 16 16 16 16 16 16 16 16 16 16 16 16 16 15 15 15 15 15 15 14 14 14 14 14 13
16 16 16 16 16 16 16 16 16 16 16 16 16 16 16 15 15 15 15 15 15 15 15 15 15 15 15 15 15 15 15 14 14 14 13 13 13 13
16 16 16 16 16 16 16 15 15 16 15 15 15 15 15 15 15 15 15 14 14 14 15 14 14 14 14 14 14 14 14 14 13 13 13 13 13 12
16 16 16 16 16 15 15 15 15 15 15 15 15 15 15 15 14 14 14 14 14 14 14 14 14 14 14 14 14 14 13 13 13 13 12 12 12 12
15 15 15 15 15 15 15 15 14 14 14 14 14 14 14 14 14 14 14 14 13 13 13 13 13 13 13 13 13 13 12 12 12 12 12 12 11 11
15 15 15 15 15 14 14 14 14 14 14 13 13 13 13 13 13 13 13 13 13 13 13 13 12 12 12 12 12 12 12 12 11 11 11 11 11 11
14 14 14 14 14 14 14 14 14 13 13 13 13 13 13 13 13 13 12 12 12 12 12 12 12 11 11 11 11 11 11 11 11 11 10 10 10 10
14 14 14 13 13 13 13 13 13 13 12 12 12 12 12 12 12 12 12 12 11 11 11 11 11 11 11 10 10 10 10 10 10 10 10 10 9 9
13 13 13 13 13 13 12 12 12 12 12 12 12 12 11 11 11 11 11 11 11 11 11 11 11 10 10 10 10 10 10 9 9 9 9 9 9 9
13 13 12 12 12 12 12 11 11 11 11 11 11 11 11 11 11 10 10 10 10 10 10 10 10 10 10 10 10 9 9 9 9 9 9 8 8 8
12 12 11 11 11 11 11 11 10 10 10 10 10 10 10 10 10 9 9 9 9 9 9 9 9 9 8 9 9 9 9 8 8 8 8 8 8 8
11 11 10 10 10 10 10 10 9 9 9 9 9 9 9 9 9 9 9 9 8 8 8 8 8 8 8 8 8 8 8 8 8 8 8 7 7 7
10 9 9 9 9 9 9 8 8 8 8 8 8 8 8 8 8 8 8 8 8 8 8 8 8 8 8 7 7 7 8 8 7 7 7 7 7 7
8 8 8 8 8 8 8 7 7 7 7 7 7 7 7 7 7 7 7 7 7 7 7 7 7 7 7 7 7 7 7 7 7 7 7 7 7 6
7 7 7 7 7 7 7 7 7 7 7 7 7 6 6 7 7 7 7 7 7 6 6 6 7 7 7 7 7 7 7 7 7 7 7 7 6 6
Wind_Speed
7 7 6 5 4 3 3 3 3 3 4 4 3 5 7 8 14 15 13 20 22 21 20 20 19 18 17 16 15 15 15 15 15 14 14 14 13 13
6 6 7 5 4 4 4 4 3 4 3 3 3 3 4 6 13 12 11 17 22 22 22 21 20 19 18 17 16 16 15 15 15 14 14 14 14 14
8 7 7 6 4 4 4 4 4 3 4 3 2 2 4 3 6 8 10 11 14 22 23 23 22 21 19 18 17 16 16 15 15 15 14 14 14 13
8 8 8 8 7 5 5 5 4 4 4 4 2 2 3 4 5 5 7 10 11 18 25 25 23 22 20 20 19 18 17 16 16 15 14 14 14 13
8 8 8 8 8 7 6 6 4 5 4 4 4 3 3 4 4 5 6 5 9 11 20 23 23 22 21 21 20 19 18 17 16 15 15 14 14 14
7 8 8 9 9 8 8 7 5 4 4 4 4 4 4 4 4 4 5 4 5 6 7 12 18 22 22 21 20 20 19 18 18 17 16 15 14 14
7 7 8 9 9 8 7 5 6 5 4 4 4 4 4 3 4 4 4 4 4 4 3 4 7 9 13 18 19 20 20 19 19 17 16 15 15 15
8 7 8 8 9 10 9 8 6 6 5 4 4 4 4 3 2 3 3 3 3 2 2 4 3 4 6 10 15 19 20 19 17 16 15 14 14 15
7 7 8 8 8 7 7 8 8 9 8 5 5 4 3 2 2 3 3 4 4 3 1 4 3 4 4 6 10 16 17 17 16 15 14 14 14 15
5 6 7 5 5 4 5 6 6 6 7 6 5 4 3 2 2 4 4 4 4 3 2 4 4 4 5 3 5 11 14 14 14 14 15 15 15 16
4 4 5 5 5 5 4 4 4 4 5 7 6 5 3 2 1 1 2 3 4 4 3 3 4 4 3 2 4 9 12 14 15 15 16 16 16 15
2 2 2 3 5 6 5 4 4 4 3 3 3 3 3 3 3 3 3 4 4 3 2 2 3 2 3 2 1 2 6 10 13 14 15 16 16 10
1 1 1 4 5 5 4 3 4 3 2 2 2 2 2 2 2 3 3 3 4 3 2 1 2 2 2 3 2 2 3 3 5 8 13 15 15 11
0 0 1 4 4 4 2 2 2 2 2 1 2 2 2 3 3 3 4 4 4 3 3 1 2 2 3 4 3 3 3 3 3 4 5 8 11 14
1 2 3 3 3 1 1 1 1 1 1 2 2 3 3 3 2 2 2 2 2 4 5 3 2 2 3 4 4 4 4 4 3 3 3 3 3 4
1 1 2 2 1 0 1 1 1 1 1 2 2 2 1 1 1 1 1 1 2 3 4 5 4 4 4 5 5 5 4 3 4 4 3 3 4 5
2 1 1 1 1 1 1 1 1 0 1 2 1 1 1 1 1 1 1 1 2 2 2 2 3 5 5 5 5 5 4 4 4 4 3 5 5 4
3 2 2 2 2 2 1 1 1 1 1 1 1 1 1 1 2 2 2 2 2 3 3 3 3 3 3 4 4 4 4 4 4 4 4 4 5 3
5 4 4 3 3 3 3 3 3 3 2 2 2 2 2 2 2 2 2 2 3 3 3 3 2 3 4 5 3 2 3 4 4 4 4 4 5 4
6 6 5 5 5 5 5 4 4 4 4 3 3 2 2 2 2 2 2 2 3 3 3 2 2 2 3 5 5 5 5 4 4 4 4 4 3 3
7 7 6 6 6 6 5 5 5 4 4 4 3 3 3 3 3 3 3 3 3 3 3 3 2 3 3 3 4 4 3 4 5 4 4 4 5 4
7 7 6 7 6 6 6 6 5 5 6 5 5 5 4 4 4 4 3 3 3 3 3 3 3 2 3 3 5 5 5 5 6 8 8 7 4 4
7 7 7 7 7 6 6 6 7 7 7 7 6 6 6 5 4 4 4 4 4 4 4 4 4 3 4 4 5 5 6 5 4 4 4 6 9 10
Wind_Direction
217 215 222 241 234 234 235 228 224 239 245 227 200 193 184 168 172 187 192 202 206 211 215 218 222 225 229 235 238 241 244 246 249 252 256 258 260 262
214 215 212 229 233 226 238 237 230 228 246 244 221 195 175 181 178 192 203 204 209 213 217 220 223 225 229 233 236 240 242 244 248 252 255 257 259 261
215 216 212 223 236 232 231 236 234 231 241 260 243 179 177 179 173 202 204 200 209 217 218 220 221 223 226 230 234 238 240 243 245 248 251 254 257 260
217 221 216 217 217 233 239 239 230 225 227 245 253 221 203 192 182 205 218 222 218 220 217 218 219 221 223 226 230 234 236 239 242 246 250 252 256 260
219 222 221 220 218 222 228 235 233 235 215 222 244 237 222 212 196 217 240 244 244 235 215 217 220 222 224 226 230 233 236 238 242 245 248 252 256 259
221 222 220 219 218 219 227 227 230 237 232 226 238 243 233 219 198 212 240 238 245 252 217 213 218 223 225 227 229 231 233 236 239 243 247 250 253 257
228 226 224 220 215 212 222 218 224 227 230 227 231 235 231 214 212 219 237 241 241 238 230 212 202 214 226 230 231 233 233 235 236 240 244 248 252 256
223 226 230 219 214 212 213 215 214 223 228 232 238 239 239 226 210 223 242 250 256 245 249 261 221 216 223 216 219 224 227 230 233 236 241 247 252 257
226 225 233 230 206 204 206 215 221 223 215 221 240 251 258 255 236 244 255 264 261 272 269 264 261 260 252 239 213 214 221 224 228 233 239 246 253 259
234 230 229 231 228 204 206 212 218 218 208 210 223 240 253 268 258 249 252 262 261 258 240 256 262 261 268 239 225 212 210 215 222 230 237 245 253 260
237 247 237 215 203 201 205 217 222 224 214 209 206 207 204 233 274 277 262 255 262 259 240 236 249 255 262 249 232 223 216 219 226 234 241 247 254 261
224 234 231 200 189 184 196 206 224 234 243 224 192 206 218 235 228 222 242 256 262 264 270 254 254 262 275 264 250 243 236 238 240 245 249 253 256 257
215 203 193 168 164 169 182 204 227 248 243 225 206 202 213 219 224 220 222 236 248 251 284 308 280 275 265 287 296 270 253 251 250 257 255 254 254 244
328 88 92 122 137 151 176 231 249 256 241 228 240 241 236 229 226 219 210 210 221 243 287 298 273 286 287 290 293 299 297 282 262 253 256 258 255 253
53 78 90 108 112 129 212 261 258 241 232 235 239 245 250 243 226 205 200 206 240 254 260 243 234 261 268 274 282 291 295 288 280 270 267 264 258 258
162 101 102 107 119 41 79 144 207 265 264 256 272 275 270 259 247 241 235 235 248 260 257 244 233 235 253 261 267 277 280 283 296 293 287 277 278 274
157 160 145 114 116 116 103 97 118 218 266 267 267 273 288 293 298 311 312 293 276 285 289 272 254 244 240 249 261 266 275 282 287 293 298 291 283 280
106 90 71 57 48 34 31 51 66 4 311 296 305 318 322 332 343 357 356 332 316 315 315 317 315 304 286 273 243 269 283 287 292 292 290 290 291 296
74 67 61 53 41 33 28 31 32 22 3 8 13 8 359 351 350 346 343 331 317 313 313 315 324 325 313 307 307 287 286 289 296 298 295 293 294 297
58 57 52 46 42 32 26 22 19 21 20 12 8 9 358 350 342 330 321 315 310 307 306 310 319 314 299 297 297 294 269 261 277 286 295 298 296 292
52 50 46 41 39 35 28 22 21 19 14 3 5 3 352 345 341 335 330 324 308 307 315 321 314 296 287 292 295 299 293 274 271 269 284 292 296 289
50 50 47 49 46 38 32 26 23 21 15 8 9 4 358 355 348 344 340 333 323 323 326 318 309 305 299 296 296 299 304 304 294 286 272 263 272 283
52 48 46 44 44 41 35 28 27 24 19 9 5 3 3 357 346 345 344 344 346 342 334 323 316 307 297 289 289 294 300 303 303 302 297 289 272 262
Height
1550 1552 1554 1556 1558 1559 1560 1562 1563 1563 1563 1563 1564 1564 1565 1566 1566 1567 1567 1568 1568 1568 1569 1569 1570 1570 1571 1571 1572 1572 1572 1572 1572 1572 1572 1572 1572 1572
1546 1548 1549 1551 1553 1555 1556 1557 1558 1559 1560 1560 1561 1562 1562 1563 1563 1564 1564 1565 1565 1565 1566 1566 1566 1567 1567 1568 1568 1568 1568 1568 1568 1568 1568 1568 1568 1567
1542 1543 1545 1547 1549 1550 1552 1553 1555 1556 1556 1557 1558 1559 1559 1560 1560 1561 1561 1561 1561 1562 1562 1562 1563 1563 1563 1564 1564 1564 1564 1564 1564 1564 1564 1563 1563 1563
1537 1539 1541 1543 1544 1546 1547 1549 1550 1551 1552 1553 1554 1555 1556 1556 1557 1557 1558 1558 1558 1558 1558 1559 1559 1559 1559 1560 1560 1560 1560 1560 1559 1559 1559 1559 1558 1557
1532 1535 1536 1538 1539 1541 1542 1544 1545 1547 1548 1549 1550 1551 1552 1553 1553 1553 1554 1554 1554 1554 1554 1554 1555 1555 1555 1555 1555 1555 1555 1555 1555 1554 1554 1553 1552 1552
1528 1530 1532 1533 1535 1536 1538 1539 1541 1542 1544 1545 1546 1547 1548 1548 1549 1549 1550 1550 1550 1551 1550 1550 1550 1550 1550 1550 1550 1550 1549 1549 1549 1549 1548 1547 1547 1546
1524 1526 1527 1529 1530 1532 1533 1534 1536 1538 1539 1540 1541 1542 1543 1544 1544 1545 1545 1545 1546 1547 1546 1546 1546 1545 1545 1545 1545 1544 1544 1544 1543 1543 1542 1542 1541 1540
1519 1521 1523 1524 1526 1527 1529 1530 1532 1533 1534 1536 1537 1538 1538 1539 1540 1541 1541 1541 1541 1542 1542 1541 1541 1540 1540 1540 1539 1539 1539 1538 1538 1537 1536 1535 1534 1533
1515 1516 1518 1519 1521 1522 1523 1525 1527 1528 1530 1531 1532 1533 1534 1535 1536 1536 1536 1537 1536 1537 1537 1536 1536 1535 1536 1534 1534 1534 1533 1533 1532 1531 1531 1529 1528 1527
1511 1512 1513 1514 1516 1517 1519 1520 1521 1523 1524 1525 1526 1528 1529 1530 1530 1531 1531 1531 1531 1532 1532 1531 1530 1530 1531 1530 1529 1529 1528 1527 1527 1526 1525 1524 1522 1521
1506 1507 1508 1509 1511 1512 1514 1515 1517 1518 1519 1520 1521 1522 1523 1524 1525 1526 1526 1526 1525 1525 1526 1526 1525 1525 1525 1524 1524 1523 1522 1522 1521 1520 1519 1518 1517 1515
1503 1503 1504 1505 1506 1508 1510 1511 1512 1513 1515 1516 1516 1517 1518 1518 1519 1520 1520 1520 1520 1520 1520 1521 1520 1519 1519 1518 1518 1517 1517 1516 1515 1514 1513 1512 1511 1509
1500 1500 1501 1502 1503 1504 1506 1507 1508 1510 1511 1512 1512 1513 1513 1513 1514 1514 1515 1516 1516 1515 1516 1516 1515 1514 1514 1513 1512 1512 1511 1510 1509 1508 1507 1506 1505 1503
1497 1498 1499 1500 1501 1502 1503 1504 1506 1507 1507 1508 1508 1508 1509 1509 1509 1509 1510 1510 1511 1511 1511 1511 1510 1510 1509 1508 1507 1506 1506 1505 1504 1503 1502 1500 1499 1498
1495 1496 1497 1498 1499 1500 1501 1502 1503 1503 1504 1504 1504 1504 1505 1505 1505 1506 1506 1506 1506 1506 1506 1506 1506 1505 1505 1504 1502 1501 1501 1500 1499 1497 1496 1495 1494 1492
1494 1495 1496 1496 1497 1498 1498 1499 1499 1500 1500 1500 1500 1501 1501 1501 1502 1502 1502 1502 1502 1501 1502 1502 1501 1500 1499 1498 1498 1496 1496 1495 1493 1492 1491 1490 1488 1487
1493 1494 1494 1495 1495 1496 1496 1497 1497 1497 1497 1497 1497 1498 1498 1498 1498 1498 1498 1498 1498 1498 1497 1497 1496 1495 1494 1494 1492 1491 1491 1490 1489 1487 1486 1484 1483 1482
1492 1492 1493 1494 1494 1494 1495 1495 1495 1495 1495 1495 1494 1494 1495 1495 1495 1495 1495 1495 1494 1494 1493 1493 1492 1490 1490 1489 1489 1487 1486 1485 1484 1482 1481 1479 1477 1476
1491 1492 1493 1493 1494 1494 1494 1494 1493 1493 1493 1492 1492 1492 1492 1492 1492 1492 1492 1491 1491 1490 1490 1490 1488 1487 1485 1484 1484 1484 1482 1480 1479 1477 1476 1474 1472 1470
1492 1492 1493 1493 1493 1493 1493 1493 1493 1492 1491 1490 1490 1490 1490 1489 1489 1489 1489 1489 1488 1487 1487 1486 1485 1484 1483 1482 1480 1479 1478 1476 1474 1473 1471 1469 1467 1466
1493 1493 1494 1494 1494 1493 1493 1493 1492 1491 1491 1490 1489 1488 1488 1488 1488 1487 1487 1486 1486 1485 1484 1483 1482 1481 1479 1478 1477 1475 1474 1473 1471 1469 1467 1464 1462 1460
1495 1495 1495 1495 1495 1494 1494 1493 1492 1491 1490 1489 1488 1488 1488 1487 1486 1485 1485 1484 1483 1482 1481 1480 1479 1477 1476 1475 1473 1472 1470 1469 1467 1466 1464 1462 1459 1456
1498 1498 1497 1497 1496 1496 1495 1494 1493 1491 1490 1489 1488 1487 1486 1486 1485 1484 1483 1482 1481 1480 1478 1477 1476 1475 1473 1472 1470 1469 1467 1465 1463 1461 1460 1458 1456 1454